INMARSAT 3-F1

Last updated on Mon Feb 10 2025 00:02:41 GMT+0000 (Coordinated Universal Time)

1 23839U 96020A 25040.16379264 .00000123 00000+0 00000+0 0 9995 2 23839 9.5664 50.9708 0005610 245.0661 307.1087 0.99982614105327
UTC large
Height (km)
Speed (km/s)
/
Latitude / Longitude
Inclination (degrees)
Orbital Period (minutes)
Azimuth
Elevation
Range (km)
Doppler Factor

Next 0 passes for location: London (51.5072 / 0.1276)

Sorry there are no passes over London.